| time (UTC) | temp F | wind direction | speed knots | gust knots | rain 1hr in | rain 24hr in | rain mn in | humidity % | barometer mb |
| 20260506134849 | 82 | 156 | 23.5 | 43.4 | 5.43 | 1.55 | 0.00 | 33 | 996.4 |
| 20260506134449 | 82 | 173 | 13.0 | 43.4 | 5.43 | 1.49 | 0.00 | 33 | 996.3 |
| 20260506134049 | 82 | 206 | 11.3 | 43.4 | 5.43 | 1.46 | 0.00 | 32 | 996.4 |
| 20260506133649 | 82 | 177 | 19.1 | 43.4 | 5.43 | 1.53 | 0.00 | 32 | 996.4 |
| 20260506133249 | 82 | 156 | 19.1 | 43.4 | 5.43 | 1.53 | 0.00 | 31 | 996.3 |
| 20260506132849 | 82 | 172 | 18.2 | 43.4 | 5.43 | 1.47 | 0.00 | 31 | 996.3 |
| 20260506132449 | 82 | 194 | 20.9 | 43.4 | 5.43 | 1.45 | 0.00 | 32 | 996.3 |
| 20260506132049 | 84 | 151 | 12.2 | 43.4 | 5.43 | 1.51 | 0.00 | 32 | 996.3 |
| 20260506131649 | 81 | 200 | 18.2 | 43.4 | 5.43 | 1.54 | 0.00 | 32 | 996.3 |
| 20260506131249 | 82 | 218 | 13.9 | 43.4 | 5.43 | 1.59 | 0.00 | 33 | 996.3 |
| 20260506130849 | 82 | 172 | 15.6 | 43.4 | 5.43 | 1.55 | 0.00 | 34 | 996.4 |
| 20260506130449 | 82 | 190 | 14.8 | 43.4 | 5.43 | 1.55 | 0.00 | 34 | 996.3 |
| 20260506130049 | 82 | 190 | 13.0 | 43.4 | 5.43 | 1.55 | 0.00 | 34 | 996.4 |
| 20260506125649 | 82 | 95 | 15.6 | 43.4 | 5.43 | 1.62 | 0.00 | 35 | 996.4 |
| 20260506125249 | 82 | 184 | 18.2 | 43.4 | 5.43 | 1.55 | 0.00 | 36 | 996.4 |
| 20260506124849 | 82 | 179 | 13.0 | 43.4 | 5.43 | 1.54 | 0.00 | 36 | 996.3 |
| 20260506124449 | 84 | 190 | 20.0 | 43.4 | 5.43 | 1.54 | 0.00 | 37 | 996.3 |
| 20260506124049 | 84 | 161 | 17.4 | 43.4 | 5.43 | 1.56 | 0.00 | 38 | 996.4 |
| 20260506123649 | 84 | 207 | 14.8 | 43.4 | 5.43 | 1.57 | 0.00 | 39 | 996.4 |
| 20260506123249 | 82 | 156 | 17.4 | 43.4 | 5.43 | 1.54 | 0.00 | 40 | 996.4 |
| 20260506122849 | 82 | 177 | 18.2 | 43.4 | 5.43 | 1.59 | 0.00 | 41 | 996.4 |
| 20260506122449 | 84 | 161 | 13.9 | 43.4 | 5.43 | 1.60 | 0.00 | 42 | 996.4 |
| 20260506122049 | 82 | 194 | 14.8 | 43.4 | 5.43 | 1.58 | 0.00 | 42 | 996.4 |
| 20260506121649 | 84 | 161 | 13.0 | 43.4 | 5.43 | 1.56 | 0.00 | 41 | 996.5 |
| 20260506121249 | 82 | 155 | 17.4 | 43.4 | 5.43 | 1.55 | 0.00 | 41 | 996.6 |
| 20260506120849 | 82 | 156 | 11.3 | 43.4 | 5.43 | 1.55 | 0.00 | 41 | 996.6 |
| 20260506120448 | 84 | 151 | 9.6 | 43.4 | 5.43 | 1.52 | 0.00 | 41 | 996.6 |
| 20260506120048 | 82 | 128 | 11.3 | 43.4 | 5.43 | 1.51 | 0.00 | 41 | 996.6 |
| 20260506115649 | 81 | 156 | 14.8 | 43.4 | 5.43 | 1.50 | 0.00 | 40 | 996.7 |
| 20260506115249 | 81 | 183 | 20.0 | 43.4 | 5.43 | 1.48 | 0.00 | 40 | 996.7 |
| 20260506114849 | 82 | 206 | 33.0 | 43.4 | 5.43 | 1.45 | 0.00 | 41 | 996.7 |
| 20260506114448 | 84 | 134 | 9.6 | 43.4 | 5.43 | 1.52 | 0.00 | 41 | 996.7 |
| 20260506114048 | 81 | 173 | 23.5 | 43.4 | 5.43 | 1.48 | 0.00 | 41 | 996.7 |
| 20260506113649 | 81 | 155 | 20.9 | 43.4 | 5.43 | 1.48 | 0.00 | 41 | 996.7 |
| 20260506113248 | 82 | 183 | 14.8 | 43.4 | 5.43 | 1.49 | 0.00 | 41 | 996.6 |
| 20260506112849 | 82 | 151 | 9.6 | 43.4 | 5.43 | 1.50 | 0.00 | 41 | 996.6 |
| 20260506112448 | 81 | 168 | 19.1 | 43.4 | 5.43 | 1.46 | 0.00 | 41 | 996.7 |
| 20260506112049 | 81 | 156 | 19.1 | 43.4 | 5.43 | 1.47 | 0.00 | 41 | 996.6 |
| 20260506111648 | 81 | 224 | 23.5 | 43.4 | 5.43 | 1.47 | 0.00 | 41 | 996.7 |
| 20260506111249 | 81 | 151 | 30.4 | 43.4 | 5.43 | 1.49 | 0.00 | 41 | 996.7 |
| 20260506110848 | 81 | 161 | 13.9 | 43.4 | 5.43 | 1.49 | 0.00 | 41 | 996.7 |
| 20260506110448 | 81 | 149 | 17.4 | 43.4 | 5.43 | 1.50 | 0.00 | 41 | 996.6 |
| 20260506110048 | 81 | 162 | 7.8 | 43.4 | 5.43 | 1.49 | 0.00 | 41 | 996.7 |
| 20260506105649 | 82 | 161 | 14.8 | 43.4 | 5.43 | 1.49 | 0.00 | 41 | 996.6 |
| 20260506105249 | 82 | 179 | 23.5 | 43.4 | 5.43 | 1.48 | 0.00 | 41 | 996.7 |
| 20260506104849 | 81 | 161 | 15.6 | 43.4 | 5.43 | 1.48 | 0.00 | 40 | 996.7 |
| 20260506104449 | 81 | 196 | 17.4 | 43.4 | 5.43 | 1.48 | 0.00 | 41 | 996.7 |
| 20260506104048 | 82 | 184 | 15.6 | 43.4 | 5.43 | 1.49 | 0.00 | 41 | 996.7 |
| 20260506103648 | 79 | 145 | 16.5 | 43.4 | 5.43 | 1.45 | 0.00 | 41 | 996.7 |
| 20260506103249 | 81 | 184 | 17.4 | 43.4 | 5.43 | 1.46 | 0.00 | 41 | 996.7 |
| 20260506102848 | 81 | 189 | 24.3 | 43.4 | 5.43 | 1.48 | 0.00 | 41 | 996.7 |
| 20260506102448 | 81 | 173 | 22.6 | 43.4 | 5.43 | 1.49 | 0.00 | 41 | 996.6 |
| 20260506102048 | 81 | 134 | 28.7 | 43.4 | 5.43 | 1.51 | 0.00 | 41 | 996.6 |
| 20260506101648 | 79 | 9 | 18.2 | 43.4 | 5.43 | 1.48 | 0.00 | 42 | 996.6 |
| 20260506101248 | 81 | 173 | 13.9 | 43.4 | 5.43 | 1.48 | 0.00 | 42 | 996.7 |
| 20260506100848 | 82 | 145 | 16.5 | 43.4 | 5.43 | 1.50 | 0.00 | 42 | 996.7 |
| 20260506100449 | 81 | 190 | 27.8 | 43.4 | 5.43 | 1.47 | 0.00 | 43 | 996.7 |
| 20260506100049 | 77 | 156 | 20.0 | 43.4 | 5.43 | 1.45 | 0.00 | 43 | 996.7 |
| 20260506095648 | 77 | 161 | 23.5 | 43.4 | 5.43 | 1.46 | 0.00 | 43 | 996.7 |
| 20260506095248 | 79 | 194 | 24.3 | 43.4 | 5.43 | 1.41 | 0.00 | 42 | 996.7 |
| 20260506094849 | 75 | 145 | 27.8 | 43.4 | 5.43 | 1.33 | 0.00 | 42 | 996.7 |
| 20260506094448 | 73 | 194 | 28.7 | 43.4 | 5.43 | 1.33 | 0.00 | 43 | 996.7 |
| 20260506094049 | 75 | 179 | 20.0 | 43.4 | 5.43 | 1.34 | 0.00 | 43 | 996.7 |
| 20260506093649 | 75 | 196 | 15.6 | 43.4 | 5.43 | 1.35 | 0.00 | 43 | 996.7 |
| 20260506092849 | 73 | 190 | 13.0 | 43.4 | 5.43 | 1.34 | 0.00 | 42 | 996.7 |
| 20260506092449 | 73 | 173 | 20.0 | 43.4 | 5.43 | 1.36 | 0.00 | 42 | 996.7 |
| 20260506092049 | 75 | 151 | 10.4 | 43.4 | 5.43 | 1.38 | 0.00 | 42 | 996.7 |
| 20260506091649 | 73 | 166 | 16.5 | 43.4 | 5.43 | 1.37 | 0.00 | 42 | 996.6 |
| 20260506091248 | 73 | 161 | 13.9 | 43.4 | 5.43 | 1.35 | 0.00 | 41 | 996.7 |
| 20260506090849 | 73 | 134 | 25.2 | 43.4 | 5.43 | 1.35 | 0.00 | 41 | 996.7 |
| 20260506090448 | 73 | 168 | 22.6 | 43.4 | 5.43 | 1.36 | 0.00 | 41 | 996.7 |
| 20260506085648 | 75 | 156 | 12.2 | 43.4 | 5.43 | 1.39 | 0.00 | 41 | 996.8 |
| 20260506085248 | 77 | 172 | 12.2 | 43.4 | 5.43 | 1.42 | 0.00 | 42 | 996.8 |
| 20260506084848 | 77 | 156 | 24.3 | 43.4 | 5.43 | 1.44 | 0.00 | 43 | 996.7 |
| 20260506084448 | 82 | 151 | 13.0 | 43.4 | 5.43 | 1.49 | 0.00 | 42 | 996.7 |
| 20260506084048 | 81 | 106 | 14.8 | 43.4 | 5.43 | 1.40 | 0.00 | 41 | 996.8 |
| 20260506083649 | 73 | 156 | 15.6 | 43.4 | 5.43 | 1.31 | 0.00 | 40 | 996.8 |
| 20260506083248 | 73 | 155 | 23.5 | 43.4 | 5.43 | 1.33 | 0.00 | 41 | 996.7 |
| 20260506082848 | 77 | 161 | 24.3 | 43.4 | 5.43 | 1.41 | 0.00 | 41 | 996.7 |
| 20260506082448 | 77 | 155 | 20.0 | 43.4 | 5.43 | 1.40 | 0.00 | 41 | 996.7 |
| 20260506082048 | 79 | 128 | 12.2 | 43.4 | 5.43 | 1.41 | 0.00 | 40 | 996.7 |
| 20260506081649 | 75 | 168 | 10.4 | 43.4 | 5.43 | 1.37 | 0.00 | 40 | 996.8 |
| 20260506081248 | 75 | 121 | 18.2 | 43.4 | 5.43 | 1.35 | 0.00 | 40 | 996.8 |
| 20260506080848 | 77 | 145 | 9.6 | 43.4 | 5.43 | 1.43 | 0.00 | 41 | 996.8 |
| 20260506080448 | 81 | 156 | 18.2 | 43.4 | 5.43 | 1.45 | 0.00 | 41 | 996.8 |
| 20260506073248 | 79 | 173 | 14.8 | 43.4 | 5.43 | 1.39 | 0.00 | 41 | 996.8 |
| 20260506072848 | 79 | 173 | 14.8 | 43.4 | 5.43 | 1.38 | 0.00 | 41 | 996.8 |
| 20260506072448 | 77 | 200 | 17.4 | 43.4 | 5.43 | 1.37 | 0.00 | 42 | 996.8 |
| 20260506072048 | 79 | 161 | 21.7 | 43.4 | 5.43 | 1.37 | 0.00 | 42 | 996.8 |
| 20260506071648 | 79 | 144 | 7.8 | 43.4 | 5.43 | 1.37 | 0.00 | 42 | 996.8 |
| 20260506071248 | 79 | 156 | 9.6 | 43.4 | 5.43 | 1.36 | 0.00 | 42 | 996.8 |
| 20260506070448 | 75 | 162 | 24.3 | 43.4 | 5.43 | 1.33 | 0.00 | 42 | 996.8 |
| 20260506062448 | 73 | 134 | 15.6 | 43.4 | 5.43 | 1.26 | 0.00 | 43 | 996.9 |
| 20260506062048 | 73 | 117 | 11.3 | 43.4 | 5.43 | 1.26 | 0.00 | 43 | 996.9 |
| 20260506061648 | 72 | 111 | 14.8 | 43.4 | 5.43 | 1.26 | 0.00 | 42 | 996.9 |
| 20260506061248 | 72 | 172 | 13.0 | 43.4 | 5.43 | 1.23 | 0.00 | 43 | 996.9 |
| 20260506060848 | 73 | 111 | 12.2 | 43.4 | 5.43 | 1.26 | 0.00 | 43 | 997.0 |
| 20260506060448 | 75 | 179 | 6.1 | 43.4 | 5.43 | 1.31 | 0.00 | 43 | 997.0 |
| 20260506051248 | 68 | 128 | 4.3 | 43.4 | 5.43 | 1.20 | 0.00 | 47 | 997.2 |
| 20260506050848 | 66 | 100 | 6.1 | 43.4 | 5.43 | 1.26 | 0.00 | 47 | 997.2 |
| 20260506050448 | 66 | 166 | 6.1 | 43.4 | 5.43 | 1.24 | 0.00 | 46 | 997.2 |
| 20260506044848 | 66 | 111 | 3.5 | 43.4 | 5.43 | 1.22 | 0.00 | 49 | 997.3 |
| 20260506044448 | 64 | 149 | 5.2 | 43.4 | 5.43 | 1.22 | 0.00 | 49 | 997.3 |
| 20260506044048 | 64 | 104 | 6.1 | 43.4 | 5.43 | 1.23 | 0.00 | 50 | 997.2 |
| 20260506043648 | 63 | 111 | 4.3 | 43.4 | 5.39 | 1.20 | 0.00 | 52 | 997.3 |
| 20260506043248 | 63 | 123 | 4.3 | 43.4 | 5.39 | 1.21 | 0.00 | 53 | 997.4 |
| 20260506042848 | 63 | 145 | 1.7 | 43.4 | 5.35 | 1.26 | 0.00 | 55 | 997.4 |
| 20260506042448 | 63 | 121 | 2.6 | 43.4 | 5.35 | 1.26 | 0.00 | 56 | 997.4 |
| 20260506042048 | 61 | 144 | 2.6 | 43.4 | 5.31 | 1.23 | 0.00 | 57 | 997.4 |
| 20260506041648 | 61 | 138 | 3.5 | 43.4 | 5.31 | 1.20 | 0.00 | 58 | 997.4 |
| 20260506041248 | 59 | 145 | 2.6 | 43.4 | 5.28 | 1.18 | 0.00 | 59 | 997.4 |
| 20260506040848 | 59 | 149 | 3.5 | 43.4 | 5.28 | 1.14 | 0.00 | 60 | 997.4 |
| 20260506040048 | 57 | 156 | 4.3 | 43.4 | 5.24 | 1.10 | 0.00 | 61 | 997.4 |
| 20260506035648 | 57 | 139 | 4.3 | 43.4 | 5.20 | 1.11 | 0.00 | 61 | 997.3 |
| 20260506035248 | 57 | 111 | 3.5 | 43.4 | 5.20 | 1.11 | 0.00 | 61 | 997.3 |
| 20260506034848 | 57 | 177 | 4.3 | 43.4 | 5.16 | 1.04 | 0.00 | 61 | 997.3 |
| 20260506034448 | 57 | 151 | 5.2 | 43.4 | 5.16 | 0.99 | 0.00 | 61 | 997.3 |
| 20260506034048 | 57 | 155 | 4.3 | 43.4 | 5.12 | 0.96 | 0.00 | 61 | 997.4 |
| 20260506033648 | 57 | 177 | 4.3 | 43.4 | 5.08 | 0.98 | 0.00 | 61 | 997.4 |
| 20260506033248 | 57 | 123 | 6.1 | 43.4 | 5.04 | 0.96 | 0.00 | 61 | 997.3 |
| 20260506032848 | 57 | 121 | 2.6 | 43.4 | 5.00 | 0.93 | 0.00 | 61 | 997.3 |
| 20260506032448 | 55 | 156 | 3.5 | 43.4 | 4.96 | 0.92 | 0.00 | 60 | 997.4 |
| 20260506032048 | 55 | 151 | 3.5 | 43.4 | 4.96 | 0.90 | 0.00 | 60 | 997.4 |
| 20260506031648 | 55 | 184 | 3.5 | 43.4 | 4.92 | 0.88 | 0.00 | 60 | 997.4 |
| 20260506031248 | 55 | 156 | 4.3 | 43.4 | 4.92 | 0.86 | 0.00 | 60 | 997.5 |
| 20260506030848 | 55 | 144 | 6.1 | 43.4 | 4.92 | 0.86 | 0.00 | 60 | 997.5 |
| 20260506030448 | 55 | 144 | 5.2 | 43.4 | 4.92 | 0.86 | 0.00 | 60 | 997.5 |
| 20260506030048 | 55 | 177 | 5.2 | 43.4 | 4.92 | 0.84 | 0.00 | 60 | 997.5 |
| 20260506025648 | 55 | 132 | 5.2 | 43.4 | 4.88 | 0.86 | 0.00 | 60 | 997.5 |
| 20260506025248 | 55 | 177 | 5.2 | 43.4 | 4.88 | 0.86 | 0.00 | 60 | 997.5 |
| 20260506024848 | 55 | 183 | 3.5 | 43.4 | 4.88 | 0.85 | 0.00 | 60 | 997.5 |
| 20260506024448 | 55 | 145 | 5.2 | 43.4 | 4.88 | 0.85 | 0.00 | 60 | 997.5 |
| 20260506024048 | 55 | 161 | 3.5 | 43.4 | 4.88 | 0.85 | 0.00 | 59 | 997.5 |
| 20260506023648 | 55 | 162 | 7.0 | 43.4 | 4.88 | 0.85 | 0.00 | 59 | 997.5 |
| 20260506023248 | 57 | 128 | 5.2 | 43.4 | 4.88 | 0.88 | 0.00 | 59 | 997.4 |
| 20260506022848 | 57 | 166 | 7.8 | 43.4 | 4.88 | 0.89 | 0.00 | 59 | 997.5 |
| 20260506022448 | 57 | 145 | 5.2 | 43.4 | 4.88 | 0.88 | 0.00 | 59 | 997.4 |
| 20260506022048 | 57 | 173 | 6.1 | 43.4 | 4.92 | 0.87 | 0.00 | 59 | 997.4 |
| 20260506021648 | 57 | 162 | 6.1 | 43.4 | 4.88 | 0.88 | 0.00 | 59 | 997.5 |
| 20260506021248 | 55 | 194 | 8.7 | 43.4 | 4.92 | 0.86 | 0.00 | 59 | 997.5 |
| 20260506020848 | 54 | 179 | 4.3 | 43.4 | 4.92 | 0.85 | 0.00 | 59 | 997.5 |
| 20260506020448 | 55 | 173 | 5.2 | 43.4 | 4.92 | 0.86 | 0.00 | 59 | 997.5 |
| 20260506020048 | 55 | 190 | 4.3 | 43.4 | 4.92 | 0.86 | 0.00 | 58 | 997.5 |
| 20260506015648 | 55 | 194 | 6.1 | 43.4 | 4.92 | 0.88 | 0.00 | 58 | 997.5 |
| 20260506015248 | 55 | 196 | 7.0 | 43.4 | 4.92 | 0.87 | 0.00 | 58 | 997.5 |
| 20260506014848 | 55 | 190 | 6.1 | 43.4 | 4.92 | 0.88 | 0.00 | 58 | 997.6 |
| 20260506014448 | 55 | 194 | 6.1 | 43.4 | 4.92 | 0.87 | 0.00 | 58 | 997.6 |
| 20260506014048 | 55 | 184 | 5.2 | 43.4 | 4.92 | 0.88 | 0.00 | 58 | 997.5 |
| 20260506013648 | 55 | 184 | 6.1 | 43.4 | 4.92 | 0.90 | 0.00 | 58 | 997.6 |
| 20260506013248 | 57 | 177 | 8.7 | 43.4 | 4.92 | 0.91 | 0.00 | 58 | 997.6 |
| 20260506012848 | 57 | 190 | 7.8 | 43.4 | 4.92 | 0.91 | 0.00 | 58 | 997.6 |
| 20260506012448 | 57 | 173 | 6.1 | 43.4 | 4.92 | 0.91 | 0.00 | 58 | 997.5 |
| 20260506012048 | 57 | 166 | 6.1 | 43.4 | 4.92 | 0.92 | 0.00 | 59 | 997.5 |
| 20260506011648 | 57 | 190 | 6.1 | 43.4 | 4.92 | 0.91 | 0.00 | 59 | 997.5 |
| 20260506011248 | 57 | 234 | 7.0 | 43.4 | 4.92 | 0.92 | 0.00 | 59 | 997.6 |
| 20260506010849 | 57 | 168 | 9.6 | 43.4 | 4.92 | 0.90 | 0.00 | 59 | 997.5 |
| 20260506010448 | 57 | 145 | 3.5 | 43.4 | 4.92 | 0.90 | 0.00 | 59 | 997.5 |
| 20260506010048 | 57 | 166 | 7.8 | 43.4 | 4.92 | 0.90 | 0.00 | 59 | 997.5 |
| 20260506005648 | 57 | 172 | 6.1 | 43.4 | 4.92 | 0.89 | 0.00 | 59 | 997.6 |
| 20260506005248 | 57 | 156 | 7.8 | 43.4 | 4.92 | 0.89 | 0.00 | 59 | 997.6 |
| 20260506004848 | 57 | 184 | 6.1 | 43.4 | 4.92 | 0.89 | 0.00 | 59 | 997.5 |
| 20260506004448 | 55 | 173 | 7.8 | 43.4 | 4.92 | 0.88 | 0.00 | 59 | 997.5 |
| 20260506004048 | 55 | 179 | 6.1 | 43.4 | 4.92 | 0.87 | 0.00 | 59 | 997.5 |
| 20260506003648 | 55 | 183 | 5.2 | 43.4 | 4.92 | 0.88 | 0.00 | 58 | 997.5 |
| 20260506003248 | 55 | 179 | 5.2 | 43.4 | 4.92 | 0.88 | 0.00 | 58 | 997.5 |
| 20260506002848 | 57 | 184 | 8.7 | 43.4 | 4.92 | 0.87 | 0.00 | 58 | 997.5 |
| 20260506002448 | 55 | 183 | 5.2 | 43.4 | 4.92 | 0.87 | 0.00 | 58 | 997.5 |
| 20260506002048 | 55 | 179 | 7.0 | 43.4 | 4.92 | 0.87 | 0.00 | 58 | 997.5 |
| 20260506001648 | 55 | 189 | 6.1 | 43.4 | 4.92 | 0.87 | 0.00 | 58 | 997.4 |
| 20260506001248 | 55 | 190 | 7.0 | 43.4 | 4.92 | 0.87 | 0.00 | 58 | 997.4 |
| 20260506000848 | 55 | 179 | 5.2 | 43.4 | 4.92 | 0.87 | 0.00 | 58 | 997.4 |
| 20260506000448 | 55 | 149 | 6.1 | 43.4 | 4.92 | 0.87 | 0.00 | 58 | 997.4 |
| 20260506000048 | 55 | 156 | 5.2 | 43.4 | 4.92 | 0.87 | 0.00 | 57 | 997.4 |
| 20260505235648 | 55 | 173 | 7.0 | 43.4 | 4.92 | 0.88 | 0.00 | 57 | 997.4 |
| 20260505235248 | 55 | 155 | 7.8 | 43.4 | 4.92 | 0.88 | 0.00 | 57 | 997.4 |
| 20260505234848 | 55 | 162 | 5.2 | 43.4 | 4.92 | 0.87 | 0.00 | 57 | 997.4 |
| 20260505234448 | 55 | 177 | 6.1 | 43.4 | 4.92 | 0.87 | 0.00 | 57 | 997.4 |
| 20260505234048 | 55 | 183 | 5.2 | 43.4 | 4.92 | 0.88 | 0.00 | 57 | 997.5 |
| 20260505233648 | 57 | 179 | 7.0 | 43.4 | 4.92 | 0.89 | 0.00 | 57 | 997.4 |
| 20260505233248 | 57 | 172 | 6.1 | 43.4 | 4.92 | 0.90 | 0.00 | 57 | 997.4 |
| 20260505232848 | 57 | 172 | 7.0 | 43.4 | 4.92 | 0.90 | 0.00 | 57 | 997.5 |
| 20260505232448 | 57 | 172 | 6.1 | 43.4 | 4.92 | 0.90 | 0.00 | 57 | 997.5 |
| 20260505232048 | 57 | 183 | 8.7 | 43.4 | 4.92 | 0.91 | 0.00 | 57 | 997.5 |
| 20260505231648 | 57 | 179 | 6.1 | 43.4 | 4.92 | 0.91 | 0.00 | 56 | 997.5 |
| 20260505231248 | 57 | 173 | 6.1 | 43.4 | 4.92 | 0.91 | 0.00 | 56 | 997.4 |
| 20260505230848 | 57 | 172 | 6.1 | 43.4 | 4.92 | 0.90 | 0.00 | 56 | 997.5 |
| 20260505230448 | 57 | 156 | 7.8 | 43.4 | 4.92 | 0.90 | 0.00 | 56 | 997.5 |
| 20260505230048 | 57 | 179 | 7.8 | 43.4 | 4.92 | 0.90 | 0.00 | 56 | 997.5 |
| 20260505225648 | 57 | 184 | 6.1 | 43.4 | 4.92 | 0.91 | 0.00 | 56 | 997.5 |
| 20260505225248 | 57 | 179 | 6.1 | 43.4 | 4.92 | 0.91 | 0.00 | 56 | 997.5 |
| 20260505224848 | 57 | 184 | 7.0 | 43.4 | 4.92 | 0.91 | 0.00 | 56 | 997.5 |
| 20260505224448 | 57 | 183 | 5.2 | 43.4 | 4.92 | 0.92 | 0.00 | 56 | 997.5 |
| 20260505224048 | 59 | 179 | 6.1 | 43.4 | 4.92 | 0.93 | 0.00 | 56 | 997.5 |
| 20260505223648 | 57 | 183 | 6.1 | 43.4 | 4.92 | 0.93 | 0.00 | 56 | 997.6 |
| 20260505223248 | 57 | 200 | 5.2 | 43.4 | 4.92 | 0.93 | 0.00 | 56 | 997.6 |
| 20260505222848 | 59 | 183 | 6.1 | 43.4 | 4.92 | 0.94 | 0.00 | 55 | 997.6 |
| 20260505222448 | 59 | 173 | 4.3 | 43.4 | 4.92 | 0.94 | 0.00 | 55 | 997.6 |
| 20260505222048 | 59 | 179 | 4.3 | 43.4 | 4.92 | 0.94 | 0.00 | 55 | 997.6 |
| 20260505221648 | 59 | 177 | 5.2 | 43.4 | 4.92 | 0.94 | 0.00 | 55 | 997.6 |
| 20260505221248 | 59 | 162 | 3.5 | 43.4 | 4.92 | 0.94 | 0.00 | 55 | 997.6 |
| 20260505220848 | 59 | 151 | 5.2 | 43.4 | 4.92 | 0.94 | 0.00 | 55 | 997.6 |
| 20260505220448 | 61 | 173 | 5.2 | 43.4 | 4.92 | 0.94 | 0.00 | 55 | 997.7 |
| 20260505220048 | 61 | 138 | 4.3 | 43.4 | 4.92 | 0.94 | 0.00 | 55 | 997.7 |
| 20260505215648 | 61 | 194 | 6.1 | 43.4 | 4.92 | 0.92 | 0.00 | 55 | 997.7 |
| 20260505215248 | 61 | 138 | 3.5 | 43.4 | 4.96 | 0.93 | 0.00 | 55 | 997.8 |
| 20260505214848 | 61 | 166 | 4.3 | 43.4 | 4.96 | 0.94 | 0.00 | 55 | 997.8 |
| 20260505214448 | 61 | 162 | 3.5 | 43.4 | 4.96 | 0.94 | 0.00 | 55 | 997.8 |
| 20260505214048 | 61 | 145 | 4.3 | 43.4 | 4.96 | 0.94 | 0.00 | 54 | 997.8 |
| 20260505213648 | 61 | 155 | 4.3 | 43.4 | 4.96 | 0.94 | 0.00 | 54 | 997.8 |
| 20260505213248 | 61 | 166 | 4.3 | 43.4 | 4.96 | 0.94 | 0.00 | 54 | 997.8 |
| 20260505212848 | 61 | 168 | 4.3 | 43.4 | 4.96 | 0.94 | 0.00 | 54 | 997.8 |
| 20260505212448 | 61 | 127 | 5.2 | 43.4 | 4.96 | 0.94 | 0.00 | 54 | 997.8 |
| 20260505212048 | 61 | 177 | 6.1 | 43.4 | 4.96 | 0.94 | 0.00 | 54 | 997.8 |
| 20260505211648 | 61 | 189 | 5.2 | 43.4 | 4.96 | 0.93 | 0.00 | 53 | 997.8 |
| 20260505211248 | 61 | 166 | 4.3 | 43.4 | 4.96 | 0.92 | 0.00 | 53 | 997.8 |
| 20260505210848 | 61 | 166 | 3.5 | 43.4 | 4.96 | 0.92 | 0.00 | 53 | 997.8 |
| 20260505210448 | 61 | 172 | 3.5 | 43.4 | 4.96 | 0.92 | 0.00 | 53 | 997.8 |
| 20260505210048 | 61 | 166 | 5.2 | 43.4 | 4.96 | 0.94 | 0.00 | 52 | 997.8 |
| 20260505205648 | 61 | 151 | 2.6 | 43.4 | 4.96 | 0.94 | 0.00 | 52 | 997.8 |
| 20260505205248 | 63 | 194 | 3.5 | 43.4 | 4.96 | 0.94 | 0.00 | 52 | 997.8 |
| 20260505204848 | 61 | 162 | 3.5 | 43.4 | 4.96 | 0.94 | 0.00 | 52 | 997.8 |
| 20260505204448 | 63 | 172 | 2.6 | 43.4 | 4.96 | 0.93 | 0.00 | 51 | 997.9 |
| 20260505204048 | 63 | 123 | 3.5 | 43.4 | 4.96 | 0.93 | 0.00 | 51 | 997.9 |
| 20260505203648 | 63 | 151 | 4.3 | 43.4 | 4.96 | 0.93 | 0.00 | 51 | 997.9 |
| 20260505203248 | 63 | 149 | 4.3 | 43.4 | 4.96 | 0.93 | 0.00 | 50 | 997.9 |
| 20260505202847 | 63 | 149 | 3.5 | 43.4 | 4.96 | 0.93 | 0.00 | 50 | 997.9 |
| 20260505202448 | 63 | 166 | 5.2 | 43.4 | 4.96 | 0.93 | 0.00 | 50 | 997.9 |
| 20260505202048 | 63 | 145 | 3.5 | 43.4 | 4.96 | 0.89 | 0.00 | 49 | 997.9 |
| 20260505201648 | 64 | 121 | 2.6 | 43.4 | 4.96 | 0.90 | 0.00 | 49 | 997.9 |
| 20260505201248 | 63 | 149 | 1.7 | 43.4 | 4.96 | 0.90 | 0.00 | 49 | 997.9 |
| 20260505200848 | 63 | 155 | 2.6 | 43.4 | 4.96 | 0.91 | 0.00 | 50 | 997.9 |
| 20260505200448 | 63 | 161 | 3.5 | 43.4 | 4.96 | 0.90 | 0.00 | 50 | 998.0 |
| 20260505200047 | 63 | 149 | 3.5 | 43.4 | 4.96 | 0.91 | 0.00 | 50 | 997.9 |
| 20260505195648 | 63 | 115 | 3.5 | 43.4 | 4.96 | 0.89 | 0.00 | 49 | 997.9 |
| 20260505195248 | 63 | 127 | 1.7 | 43.4 | 4.96 | 0.90 | 0.00 | 49 | 997.9 |
| 20260505194848 | 63 | 121 | 2.6 | 43.4 | 4.96 | 0.91 | 0.00 | 49 | 997.9 |
| 20260505194448 | 64 | 123 | 2.6 | 43.4 | 4.96 | 0.92 | 0.00 | 49 | 997.9 |
| 20260505194048 | 63 | 138 | 3.5 | 43.4 | 4.96 | 0.93 | 0.00 | 49 | 997.9 |
| 20260505193647 | 63 | 139 | 3.5 | 43.4 | 4.96 | 0.92 | 0.00 | 48 | 997.9 |
| 20260505193248 | 63 | 156 | 1.7 | 43.4 | 4.96 | 0.93 | 0.00 | 48 | 997.9 |
| 20260505192847 | 63 | 138 | 1.7 | 43.4 | 4.96 | 0.94 | 0.00 | 48 | 997.9 |
| 20260505192448 | 63 | 145 | 4.3 | 43.4 | 4.96 | 0.96 | 0.00 | 48 | 997.9 |
| 20260505192048 | 63 | 145 | 3.5 | 43.4 | 4.96 | 0.95 | 0.00 | 47 | 997.9 |
| 20260505191648 | 64 | 162 | 4.3 | 43.4 | 4.96 | 0.95 | 0.00 | 47 | 997.9 |
| 20260505191247 | 63 | 149 | 2.6 | 43.4 | 4.96 | 0.95 | 0.00 | 47 | 997.9 |
| 20260505190848 | 63 | 189 | 4.3 | 43.4 | 4.96 | 0.96 | 0.00 | 47 | 997.9 |
| 20260505190448 | 64 | 162 | 3.5 | 43.4 | 4.96 | 0.97 | 0.00 | 47 | 997.9 |
| 20260505190047 | 64 | 144 | 3.5 | 43.4 | 4.96 | 0.95 | 0.00 | 46 | 997.9 |
| 20260505185647 | 64 | 132 | 3.5 | 43.4 | 4.96 | 0.96 | 0.00 | 46 | 997.8 |
| 20260505185247 | 64 | 144 | 3.5 | 43.4 | 4.96 | 0.96 | 0.00 | 46 | 997.8 |
| 20260505184847 | 64 | 138 | 2.6 | 43.4 | 4.96 | 0.96 | 0.00 | 46 | 997.8 |
| 20260505184447 | 64 | 155 | 2.6 | 43.4 | 4.96 | 0.96 | 0.00 | 46 | 997.8 |
| 20260505184047 | 64 | 139 | 2.6 | 43.4 | 4.96 | 0.96 | 0.00 | 45 | 997.8 |
| 20260505183648 | 64 | 127 | 2.6 | 43.4 | 4.96 | 0.98 | 0.00 | 45 | 997.7 |
| 20260505183248 | 64 | 121 | 1.7 | 43.4 | 4.96 | 0.98 | 0.00 | 45 | 997.7 |
| 20260505182847 | 64 | 134 | 1.7 | 43.4 | 4.96 | 1.01 | 0.00 | 45 | 997.7 |
| 20260505182448 | 64 | 139 | 2.6 | 43.4 | 4.96 | 1.02 | 0.00 | 44 | 997.7 |
| 20260505182048 | 64 | 166 | 3.5 | 43.4 | 4.96 | 1.03 | 0.00 | 44 | 997.7 |
| 20260505181647 | 66 | 155 | 3.5 | 43.4 | 4.96 | 1.05 | 0.00 | 44 | 997.6 |
| 20260505181247 | 66 | 139 | 3.5 | 43.4 | 4.96 | 1.06 | 0.00 | 43 | 997.6 |
| 20260505180848 | 66 | 151 | 1.7 | 43.4 | 4.96 | 1.06 | 0.00 | 43 | 997.6 |
| 20260505180447 | 66 | 117 | 5.2 | 43.4 | 5.00 | 1.07 | 0.00 | 43 | 997.6 |
| 20260505180047 | 66 | 145 | 3.5 | 43.4 | 5.00 | 1.07 | 0.00 | 42 | 997.6 |
| 20260505175647 | 66 | 162 | 3.5 | 43.4 | 5.00 | 1.06 | 0.00 | 42 | 997.5 |
| 20260505175247 | 68 | 132 | 2.6 | 43.4 | 5.04 | 1.07 | 0.00 | 42 | 997.5 |
| 20260505174847 | 68 | 145 | 2.6 | 43.4 | 5.12 | 1.09 | 0.00 | 41 | 997.5 |
| 20260505174447 | 68 | 134 | 1.7 | 43.4 | 5.16 | 1.11 | 0.00 | 41 | 997.5 |
| 20260505174047 | 68 | 151 | 2.6 | 43.4 | 5.20 | 1.12 | 0.00 | 41 | 997.4 |
| 20260505173647 | 70 | 145 | 2.6 | 43.4 | 5.24 | 1.14 | 0.00 | 41 | 997.4 |
| 20260505173247 | 70 | 151 | 2.6 | 43.4 | 5.24 | 1.17 | 0.00 | 40 | 997.4 |
| 20260505172847 | 70 | 138 | 3.5 | 43.4 | 5.28 | 1.19 | 0.00 | 40 | 997.4 |
| 20260505172447 | 70 | 151 | 3.5 | 43.4 | 5.28 | 1.20 | 0.00 | 40 | 997.4 |
| 20260505172048 | 70 | 132 | 2.6 | 43.4 | 5.31 | 1.21 | 0.00 | 40 | 997.4 |
| 20260505171647 | 72 | 151 | 3.5 | 43.4 | 5.35 | 1.23 | 0.00 | 39 | 997.4 |
| 20260505171248 | 72 | 138 | 3.5 | 43.4 | 5.43 | 1.26 | 0.00 | 39 | 997.4 |
| 20260505170847 | 72 | 144 | 2.6 | 43.4 | 5.43 | 1.28 | 0.00 | 39 | 997.4 |
| 20260505170447 | 73 | 166 | 3.5 | 43.4 | 5.43 | 1.34 | 0.00 | 39 | 997.4 |
| 20260505170047 | 77 | 184 | 7.0 | 43.4 | 5.43 | 1.38 | 0.00 | 38 | 997.4 |
| 20260505165647 | 79 | 184 | 6.1 | 43.4 | 5.43 | 1.42 | 0.00 | 38 | 997.4 |
| 20260505165247 | 79 | 177 | 7.8 | 43.4 | 5.43 | 1.36 | 0.00 | 38 | 997.4 |
| 20260505164847 | 79 | 183 | 5.2 | 43.4 | 5.43 | 1.35 | 0.00 | 38 | 997.4 |
| 20260505164447 | 75 | 184 | 5.2 | 43.4 | 5.43 | 1.31 | 0.00 | 38 | 997.4 |
| 20260505164047 | 75 | 184 | 7.0 | 43.4 | 5.43 | 1.32 | 0.00 | 38 | 997.5 |
| 20260505163647 | 77 | 183 | 5.2 | 43.4 | 5.43 | 1.32 | 0.00 | 38 | 997.5 |
| 20260505163247 | 79 | 161 | 6.1 | 43.4 | 5.43 | 1.33 | 0.00 | 38 | 997.5 |
| 20260505162847 | 75 | 189 | 9.6 | 43.4 | 5.43 | 1.30 | 0.00 | 38 | 997.5 |
| 20260505162447 | 75 | 172 | 7.8 | 43.4 | 5.43 | 1.31 | 0.00 | 37 | 997.5 |
| 20260505162047 | 75 | 177 | 5.2 | 43.4 | 5.43 | 1.32 | 0.00 | 37 | 997.5 |
| 20260505161247 | 77 | 183 | 5.2 | 43.4 | 5.43 | 1.35 | 0.00 | 36 | 997.5 |
| 20260505160847 | 79 | 184 | 5.2 | 43.4 | 5.43 | 1.36 | 0.00 | 36 | 997.5 |
| 20260505160447 | 75 | 173 | 5.2 | 43.4 | 5.43 | 1.32 | 0.00 | 35 | 997.5 |
| 20260505153247 | 81 | 184 | 9.6 | 43.4 | 5.43 | 1.46 | 0.00 | 34 | 997.7 |
| 20260505152447 | 81 | 190 | 7.0 | 43.4 | 5.43 | 1.46 | 0.00 | 33 | 997.8 |
| 20260505151647 | 82 | 168 | 4.3 | 43.4 | 5.43 | 1.46 | 0.00 | 33 | 997.8 |
| 20260505151247 | 81 | 179 | 4.3 | 43.4 | 5.43 | 1.43 | 0.00 | 32 | 997.8 |
| 20260505150847 | 79 | 172 | 7.8 | 43.4 | 5.43 | 1.42 | 0.00 | 32 | 997.8 |
| 20260505150447 | 81 | 183 | 8.7 | 43.4 | 5.43 | 1.46 | 0.00 | 32 | 997.9 |
| 20260505140447 | 86 | 173 | 14.8 | 43.4 | 5.43 | 1.60 | 0.00 | 30 | 998.2 |